This is the latest recevied weather packets stored in our database for station/object IA5ITY-13. If no packets are shown the sender has not sent any weather packets the latest 10 day(s).
| Time | Temp. | Humidity | Pressure | Rain* | Wind** | Luminosity | Snow |
|---|---|---|---|---|---|---|---|
| 1777577710 | 17.78° C | 32% | 1018.3 hPa | 0 mm | - | - | - |
| 1777577423 | 17.78° C | 34% | 1018.4 hPa | 0 mm | - | - | - |
| 1777575633 | 17.78° C | 36% | 1018.1 hPa | 0 mm | - | - | - |
| 1777575310 | 17.78° C | 34% | 1018.1 hPa | 0 mm | - | - | - |
| 1777574413 | 18.89° C | 33% | 1018 hPa | 0 mm | - | - | - |
| 1777573213 | 18.89° C | 31% | 1017.6 hPa | 0 mm | - | - | - |
| 1777572613 | 18.89° C | 28% | 1017.4 hPa | 0 mm | - | - | - |
| 1777572309 | 18.89° C | 29% | 1017.4 hPa | 0 mm | - | - | - |
| 1777571710 | 20° C | 28% | 1017.4 hPa | 0 mm | - | - | - |
| 1777571419 | 20° C | 27% | 1017.3 hPa | 0 mm | - | - | - |
| 1777571112 | 20° C | 26% | 1017.3 hPa | 0 mm | - | - | - |
| 1777570813 | 21.11° C | 27% | 1017.2 hPa | 0 mm | - | - | - |
| 1777570525 | 21.11° C | 26% | 1017.1 hPa | 0 mm | - | - | - |
| 1777570224 | 21.11° C | 27% | 1017 hPa | 0 mm | - | - | - |
| 1777569614 | 20° C | 28% | 1017.1 hPa | 0 mm | - | - | - |
| 1777569013 | 22.22° C | 28% | 1017 hPa | 0 mm | - | - | - |
| 1777566910 | 22.22° C | 27% | 1017.1 hPa | 0 mm | - | - | - |
| 1777566625 | 22.22° C | 29% | 1017.1 hPa | 0 mm | - | - | - |
| 1777566013 | 22.78° C | 29% | 1017.1 hPa | 0 mm | - | - | - |
| 1777565713 | 25° C | 29% | 1017 hPa | 0 mm | - | - | - |
| 1777565413 | 22.78° C | 33% | 1017.1 hPa | 0 mm | - | - | - |
| 1777565109 | 22.78° C | 43% | 1017.1 hPa | 0 mm | - | - | - |
| 1777563309 | 21.11° C | 52% | 1017 hPa | 0 mm | - | - | - |
| 1777563025 | 21.11° C | 53% | 1017 hPa | 0 mm | - | - | - |
| 1777562709 | 22.22° C | 52% | 1017.1 hPa | 0 mm | - | - | - |
* Rain latest hour (hover to see other rain measurements)
** Current wind speed in m/s (hover to see current wind gust speed)